Location: Bratsk-Energetik
(56.3300°N, 101.7600°E)
Time: 20:17:12
(UTC+08:00)

ISS - Pass Details

Date: 21 March 2017
Orbit: 399 x 409 km, 51.6° (Epoch: 23 March)

Event Time Altitude Azimuth Distance (km) Brightness Sun altitude
Exits shadow 05:26:00 17° 186° (S) 1,135 -1.9 -15.2°
Drops below altitude 10° 05:27:30 10° 161° (SSE) 1,472 -1.1 -15.0°
Sets 05:30:00 0° 142° (SE) 2,331 0.2 -14.7°
